Volver al catálogo

FENGYUN 1C DEB

ActivoLEO
NORAD 31483·DEBRIS·🇨🇳 China

Lanzado May 10, 1999 desde Taiyuan Satellite Launch Center

Loading…

Próximos Pases (próximas 24 horas)

TLE

ActualizadoSource: Space-Track

Época: Sep 14, 2026, 02:53 UTC

1 31483U 99025BVX 26257.12075884  .00004111  00000-0  18822-2 0  9991
2 31483 102.5120 323.3076 0117725 253.3510 137.0908 14.18705421986080

Sigue FENGYUN 1C DEB en tiempo real con AllMySat

Download on the App Store